Location: Lake Arresoe
(56.0000°N, 12.5000°E)
Time: 10:25:21
(UTC+02:00)

Cosmos 1674 - Pass Details

Date: 14 August 2020
Orbit: 495 x 517 km, 82.5° (Epoch: 23 September)

Event Time Altitude Azimuth Distance (km) Brightness Sun altitude
Rises 03:02:26 0° 336° (NNW) 2,601 6.9 -16.2°
Reaches altitude 10° 03:05:03 10° 317° (NW) 1,714 5.6 -16.0°
Maximum altitude 03:07:37 18° 274° (W) 1,297 4.5 -15.9°
Enters shadow 03:08:08 17° 263° (W) 1,317 4.4 -15.8°
